Weather History for Newberry, SC

Change the Weather History Date:

Saturday, November 17, 2012

  Actual Average (KFDW) Record (KFDW)
Temperature  
Mean Temperature 47 °F -  
Max Temperature 59 °F 64 °F 71 °F (2013)
Min Temperature 35 °F 40 °F 37 °F (2014)
Degree Days  
Heating Degree Days 18    
Moisture  
Dew Point 31 °F    
Average Humidity 59    
Maximum Humidity 93    
Minimum Humidity 31    
Precipitation  
Precipitation 0.00 in - - ()
Sea Level Pressure  
Sea Level Pressure 30.42 in    
Wind  
Wind Speed 10 mph (NNE)    
Max Wind Speed 21 mph    
Max Gust Speed 25 mph    
Visibility 10 miles    
Events      
Averages and records for this station are not official NWS values.
T = Trace of Precipitation, MM = Missing Value Source: NWS Daily Summary

Daily Weather History Graph

Daily Weather History Graph

Search for Another Location

Airport:

Trip Planner

Search our weather history database for the weather conditions in past years. The results will help you decide how hot, cold, wet, or windy it might be!

Date:

Astronomy

Nov. 17, 2012 Rise Set
Actual Time 7:02 AM EST 5:20 PM EST
Civil Twilight 6:35 AM EST 5:47 PM EST
Nautical Twilight 6:04 AM EST 6:18 PM EST
Astronomical Twilight 5:34 AM EST 6:48 PM EST
Moon 10:45 AM EST (11/17) 9:28 PM EST (11/17)
Length of Visible Light 11h 12m
Length of Day
10h 18m
Waxing Crescent, 20% of the Moon is Illuminated
Nov 17
Waxing Crescent
Nov 20
First Quarter
Nov 28
Full
Dec 6
Last Quarter
Dec 13
New

Hourly Weather History & Observations

Time (EST) Temp. Windchill Dew Point Humidity Pressure Visibility Wind Dir Wind Speed Gust Speed Precip Events Conditions
12:15 AM 41.0 °F 35.8 °F 35.6 °F 81% 30.39 in 10.0 mi NE 8.1 mph - N/A   Clear
12:35 AM 39.2 °F 33.6 °F 35.6 °F 87% 30.39 in 10.0 mi NNE 8.1 mph - N/A   Clear
12:55 AM 41.0 °F 35.8 °F 35.6 °F 81% 30.39 in 10.0 mi NE 8.1 mph - N/A   Clear
1:15 AM 41.0 °F 34.7 °F 35.6 °F 81% 30.39 in 10.0 mi NE 10.4 mph - N/A   Clear
1:35 AM 39.2 °F 33.0 °F 35.6 °F 87% 30.39 in 10.0 mi NE 9.2 mph - N/A   Clear
1:55 AM 39.2 °F 33.6 °F 35.6 °F 87% 30.40 in 10.0 mi NE 8.1 mph - N/A   Clear
2:15 AM 37.4 °F 30.8 °F 35.6 °F 93% 30.40 in 10.0 mi NNE 9.2 mph - N/A   Clear
2:35 AM 37.4 °F 31.4 °F 35.6 °F 93% 30.40 in 10.0 mi NNE 8.1 mph - N/A   Clear
2:55 AM 37.4 °F 30.3 °F 35.6 °F 93% 30.40 in 10.0 mi NNE 10.4 mph - N/A   Clear
3:15 AM 37.4 °F 30.8 °F 33.8 °F 87% 30.40 in 10.0 mi NNE 9.2 mph - N/A   Clear
3:35 AM 37.4 °F 30.8 °F 33.8 °F 87% 30.41 in 10.0 mi NNE 9.2 mph - N/A   Clear
3:55 AM 35.6 °F 28.6 °F 33.8 °F 93% 30.41 in 10.0 mi NNE 9.2 mph - N/A   Clear
4:15 AM 37.4 °F 30.8 °F 33.8 °F 87% 30.41 in 10.0 mi NNE 9.2 mph - N/A   Clear
4:35 AM 37.4 °F 30.3 °F 33.8 °F 87% 30.41 in 10.0 mi NNE 10.4 mph - N/A   Clear
4:55 AM 37.4 °F 30.3 °F 33.8 °F 87% 30.42 in 10.0 mi NNE 10.4 mph - N/A   Clear
5:15 AM 35.6 °F 28.6 °F 33.8 °F 93% 30.42 in 10.0 mi NNE 9.2 mph - N/A   Clear
5:35 AM 35.6 °F 28.0 °F 33.8 °F 93% 30.42 in 10.0 mi NNE 10.4 mph - N/A   Clear
5:55 AM 35.6 °F 28.6 °F 33.8 °F 93% 30.43 in 10.0 mi NNE 9.2 mph - N/A   Clear
6:15 AM 35.6 °F 28.0 °F 33.8 °F 93% 30.43 in 10.0 mi North 10.4 mph - N/A   Clear
6:35 AM 37.4 °F 30.3 °F 33.8 °F 87% 30.43 in 10.0 mi NNE 10.4 mph - N/A   Clear
6:55 AM 37.4 °F 30.3 °F 33.8 °F 87% 30.43 in 10.0 mi NNE 10.4 mph - N/A   Clear
7:15 AM 37.4 °F 29.8 °F 33.8 °F 87% 30.44 in 10.0 mi NNE 11.5 mph - N/A   Clear
7:35 AM 37.4 °F 30.3 °F 33.8 °F 87% 30.44 in 10.0 mi NNE 10.4 mph - N/A   Clear
7:55 AM 37.4 °F 30.3 °F 33.8 °F 87% 30.45 in 10.0 mi NNE 10.4 mph - N/A   Clear
8:15 AM 41.0 °F 34.3 °F 33.8 °F 76% 30.46 in 10.0 mi NNE 11.5 mph - N/A   Clear
8:35 AM 42.8 °F 36.6 °F 33.8 °F 70% 30.46 in 10.0 mi NNE 11.5 mph - N/A   Clear
8:55 AM 44.6 °F 38.1 °F 33.8 °F 66% 30.47 in 10.0 mi NNE 13.8 mph 21.9 mph N/A   Clear
9:15 AM 44.6 °F 37.4 °F 32.0 °F 61% 30.47 in 10.0 mi NE 16.1 mph 23.0 mph N/A   Clear
9:35 AM 46.4 °F 40.1 °F 32.0 °F 57% 30.47 in 10.0 mi NNE 15.0 mph 21.9 mph N/A   Clear
9:55 AM 46.4 °F 38.7 °F 32.0 °F 57% 30.47 in 10.0 mi NE 20.7 mph 25.3 mph N/A   Clear
10:15 AM 48.2 °F - 32.0 °F 54% 30.47 in 10.0 mi NE 16.1 mph 24.2 mph N/A   Clear
10:35 AM 51.8 °F - 32.0 °F 47% 30.47 in 10.0 mi ENE 12.7 mph - N/A   Clear
10:55 AM 51.8 °F - 32.0 °F 47% 30.46 in 10.0 mi NE 12.7 mph 20.7 mph N/A   Clear
11:15 AM 53.6 °F - 30.2 °F 41% 30.46 in 10.0 mi NNE 13.8 mph - N/A   Clear
11:35 AM 53.6 °F - 30.2 °F 41% 30.45 in 10.0 mi NE 12.7 mph 20.7 mph N/A   Clear
12:55 PM 55.4 °F - 28.4 °F 36% 30.41 in 10.0 mi NNE 13.8 mph 19.6 mph N/A   Clear
1:15 PM 59.0 °F - 28.4 °F 31% 30.41 in 10.0 mi NNE 16.1 mph - N/A   Clear
1:35 PM 59.0 °F - 28.4 °F 31% 30.40 in 10.0 mi NE 11.5 mph - N/A   Clear
1:55 PM 59.0 °F - 28.4 °F 31% 30.39 in 10.0 mi NE 13.8 mph 21.9 mph N/A   Clear
2:15 PM 59.0 °F - 28.4 °F 31% 30.39 in 10.0 mi NE 13.8 mph 21.9 mph N/A   Clear
2:35 PM 59.0 °F - 28.4 °F 31% 30.39 in 10.0 mi NE 9.2 mph 17.3 mph N/A   Clear
2:55 PM 59.0 °F - 28.4 °F 31% 30.39 in 10.0 mi NE 10.4 mph 16.1 mph N/A   Clear
3:15 PM 57.2 °F - 28.4 °F 33% 30.39 in 10.0 mi NE 13.8 mph - N/A   Clear
3:35 PM 57.2 °F - 28.4 °F 33% 30.39 in 10.0 mi NE 12.7 mph 17.3 mph N/A   Clear
3:55 PM 57.2 °F - 28.4 °F 33% 30.39 in 10.0 mi NNE 15.0 mph 18.4 mph N/A   Clear
4:15 PM 57.2 °F - 28.4 °F 33% 30.39 in 10.0 mi NNE 13.8 mph 19.6 mph N/A   Clear
4:35 PM 55.4 °F - 28.4 °F 36% 30.40 in 10.0 mi NNE 10.4 mph 16.1 mph N/A   Clear
4:55 PM 55.4 °F - 28.4 °F 36% 30.40 in 10.0 mi NNE 9.2 mph - N/A   Clear
5:15 PM 53.6 °F - 30.2 °F 41% 30.40 in 10.0 mi NNE 6.9 mph - N/A   Clear
5:35 PM 51.8 °F - 30.2 °F 44% 30.41 in 10.0 mi NNE 4.6 mph - N/A   Clear
5:55 PM 51.8 °F - 30.2 °F 44% 30.41 in 10.0 mi NNE 4.6 mph - N/A   Clear
6:15 PM 48.2 °F - 32.0 °F 54% 30.42 in 7.0 mi NE 5.8 mph - N/A   Clear
6:35 PM 48.2 °F - 32.0 °F 54% 30.42 in 10.0 mi NNE 5.8 mph - N/A   Clear
6:55 PM 50.0 °F - 30.2 °F 47% 30.42 in 10.0 mi NE 6.9 mph - N/A   Scattered Clouds
7:15 PM 50.0 °F - 30.2 °F 47% 30.43 in 10.0 mi NE 6.9 mph - N/A   Mostly Cloudy
7:35 PM 51.8 °F - 30.2 °F 44% 30.44 in 10.0 mi NE 6.9 mph - N/A   Overcast
7:55 PM 51.8 °F - 28.4 °F 41% 30.44 in 10.0 mi NE 9.2 mph - N/A   Overcast
8:15 PM 51.8 °F - 28.4 °F 41% 30.44 in 10.0 mi NE 9.2 mph - N/A   Overcast
8:35 PM 51.8 °F - 28.4 °F 41% 30.43 in 10.0 mi NE 12.7 mph - N/A   Overcast
8:55 PM 51.8 °F - 28.4 °F 41% 30.44 in 10.0 mi NE 11.5 mph - N/A   Overcast
9:15 PM 51.8 °F - 28.4 °F 41% 30.44 in 10.0 mi NNE 10.4 mph - N/A   Overcast
9:55 PM 51.8 °F - 28.4 °F 41% 30.44 in 10.0 mi NNE 10.4 mph - N/A   Overcast
10:15 PM 51.8 °F - 28.4 °F 41% 30.44 in 10.0 mi NNE 13.8 mph - N/A   Overcast
10:35 PM 51.8 °F - 28.4 °F 41% 30.43 in 10.0 mi NNE 12.7 mph - N/A   Overcast
10:55 PM 51.8 °F - 28.4 °F 41% 30.44 in 10.0 mi NE 12.7 mph - N/A   Overcast
11:15 PM 51.8 °F - 28.4 °F 41% 30.44 in 10.0 mi NE 12.7 mph 17.3 mph N/A   Overcast
11:35 PM 50.0 °F - 28.4 °F 43% 30.43 in 10.0 mi NE 10.4 mph - N/A   Overcast
11:55 PM 50.0 °F - 28.4 °F 43% 30.43 in 10.0 mi NNE 11.5 mph - N/A   Overcast